EW5939 Weather Reports


time (UTC)temp
C
wind
direction
speed
KPH
gust
KPH
rain 1hr
cm
rain 24hr
cm
rain mn
cm
humidity
%
barometer
mb
20260507211546 13 0 0.0 8.0 0.00 0.00 0.00 47 1009.7
20260507210044 13 0 0.0 9.7 0.00 0.00 0.00 48 1009.7
20260507204551 13 0 0.0 4.8 0.00 0.00 0.00 46 1009.6
20260507203046 13 0 0.0 12.9 0.00 0.00 0.00 48 1009.7
20260507201549 13 0 0.0 6.4 0.00 0.00 0.00 46 1009.8
20260507200043 14 0 0.0 6.4 0.00 0.00 0.00 45 1009.9
20260507194541 13 0 0.0 8.0 0.00 0.00 0.00 49 1010.0
20260507193049 13 0 0.0 9.7 0.00 0.00 0.00 49 1010.0
20260507191545 12 0 0.0 9.7 0.00 0.00 0.00 50 1010.3
20260507190046 12 0 0.0 4.8 0.00 0.00 0.00 50 1010.4
20260507184544 12 0 0.0 0.0 0.00 0.00 0.00 50 1010.6
20260507183045 13 0 0.0 3.2 0.00 0.00 0.00 46 1010.5
20260507181540 12 0 0.0 3.2 0.00 0.00 0.00 48 1010.6
20260507180049 12 0 0.0 3.2 0.00 0.00 0.00 49 1010.7
20260507174539 12 0 0.0 3.2 0.00 0.00 0.00 50 1010.8
20260507173047 13 0 0.0 3.2 0.00 0.00 0.00 48 1010.9
20260507171556 12 0 0.0 0.0 0.00 0.00 0.00 47 1011.2
20260507170047 13 0 0.0 8.0 0.00 0.00 0.00 48 1011.3
20260507164540 12 0 0.0 0.0 0.00 0.00 0.00 46 1011.4
20260507163038 12 0 0.0 0.0 0.00 0.00 0.00 47 1011.6
20260507161545 12 0 0.0 0.0 0.00 0.00 0.00 49 1011.7
20260507160047 11 0 0.0 0.0 0.00 0.00 0.00 49 1011.7
20260507154544 11 0 0.0 0.0 0.00 0.03 0.00 52 1011.8
20260507153041 12 0 0.0 0.0 0.00 0.03 0.00 50 1012.1
20260507151540 11 0 0.0 0.0 0.00 0.03 0.00 52 1012.1
20260507150039 11 0 0.0 0.0 0.00 0.03 0.00 53 1012.4
20260507144611 11 0 0.0 1.6 0.00 0.03 0.00 53 1012.4
20260507143049 11 0 0.0 0.0 0.00 0.03 0.00 57 1012.8
20260507141553 10 0 0.0 0.0 0.00 0.03 0.00 58 1013.0
20260507140041 10 0 0.0 4.8 0.00 0.03 0.00 60 1013.2
20260507134544 10 0 0.0 0.0 0.00 0.08 0.00 61 1013.1
20260507133039 9 0 0.0 3.2 0.00 0.08 0.00 61 1013.2
20260507131545 8 0 0.0 0.0 0.00 0.08 0.00 62 1013.2
20260507130045 7 0 0.0 0.0 0.00 0.08 0.00 61 1013.0
20260507124545 7 0 0.0 0.0 0.00 0.13 0.00 57 1013.2
20260507123047 6 0 0.0 0.0 0.00 0.13 0.00 54 1013.1
20260507121540 5 0 0.0 0.0 0.00 0.13 0.00 49 1013.2
20260507120039 5 0 0.0 0.0 0.00 0.13 0.00 30 1013.3
20260507114538 4 0 0.0 0.0 0.00 0.41 0.00 100 1013.1
20260507113045 3 0 0.0 0.0 0.00 0.41 0.00 100 1012.9
20260507111548 2 0 0.0 0.0 0.00 0.41 0.00 100 1012.8
20260507110044 1 0 0.0 0.0 0.00 0.41 0.00 100 1012.6
20260507104539 1 0 0.0 0.0 0.00 0.58 0.00 100 1012.7
20260507103041 1 0 0.0 0.0 0.00 0.58 0.00 100 1012.6
20260507101546 1 0 0.0 0.0 0.00 0.58 0.00 100 1012.6
20260507100047 1 0 0.0 0.0 0.00 0.58 0.00 7 1012.5
20260507094547 2 0 0.0 0.0 0.00 0.86 0.00 15 1012.3
20260507093045 2 0 0.0 0.0 0.00 0.86 0.00 21 1012.6
20260507091541 2 0 0.0 0.0 0.00 0.86 0.00 26 1012.5
20260507090038 2 0 0.0 0.0 0.00 0.86 0.00 35 1012.8
20260507084539 3 0 0.0 0.0 0.00 0.99 0.00 39 1012.7
20260507083049 3 0 0.0 0.0 0.00 0.99 0.00 48 1012.6
20260507081543 3 0 0.0 0.0 0.00 0.99 0.00 43 1012.8
20260507080044 3 0 0.0 0.0 0.00 0.99 0.00 41 1012.7
20260507074540 3 0 0.0 0.0 0.00 1.07 0.00 43 1012.9
20260507073039 4 0 0.0 0.0 0.00 1.07 0.00 48 1012.9
20260507071551 4 0 0.0 0.0 0.00 1.07 0.00 47 1012.8
20260507070046 5 0 0.0 0.0 0.00 1.07 0.00 51 1013.0
20260507064540 5 0 0.0 0.0 0.00 1.27 0.00 57 1013.0
20260507063048 5 0 0.0 0.0 0.00 1.27 0.00 58 1013.0
20260507061543 5 0 0.0 0.0 0.00 1.27 0.00 61 1013.2
20260507060050 6 0 0.0 0.0 0.00 1.27 0.00 61 1013.2
20260507054546 6 0 0.0 0.0 0.00 1.32 0.00 61 1013.1
20260507053053 6 0 0.0 0.0 0.00 1.32 0.00 61 1013.5
20260507051545 6 0 0.0 0.0 0.00 1.32 0.00 63 1013.6
20260507050043 6 0 0.0 0.0 0.00 1.32 0.00 62 1013.6
20260507044557 6 0 0.0 0.0 0.00 1.32 0.00 62 1013.5
20260507043038 6 0 0.0 0.0 0.00 1.32 0.00 62 1013.7
20260507041545 6 0 0.0 0.0 0.00 1.32 0.00 63 1013.9
20260507040044 6 0 0.0 0.0 0.00 1.32 0.00 63 1013.6
20260507034556 6 0 0.0 0.0 0.00 1.32 1.32 63 1013.5
20260507033049 6 0 0.0 0.0 0.00 1.32 1.32 62 1013.5
20260507031539 7 0 0.0 1.6 0.00 1.32 1.32 62 1013.5
20260507030054 7 0 0.0 0.0 0.00 1.32 1.32 63 1013.5
20260507024552 7 0 0.0 0.0 0.00 1.32 1.32 62 1013.4
20260507023045 7 0 0.0 0.0 0.00 1.32 1.32 62 1013.0
20260507021551 7 0 0.0 0.0 0.00 1.32 1.32 62 1013.1
20260507020051 7 0 0.0 0.0 0.00 1.32 1.32 62 1013.0
20260507014550 7 0 0.0 0.0 0.00 1.32 1.32 60 1013.0
20260507013057 7 0 0.0 0.0 0.00 1.32 1.32 62 1013.0
20260507011546 7 0 0.0 0.0 0.00 1.32 1.32 62 1013.1
20260507010045 8 0 0.0 0.0 0.00 1.32 1.32 62 1013.2
20260507004542 8 0 0.0 0.0 0.00 1.32 1.32 61 1013.3
20260507003047 8 0 0.0 3.2 0.00 1.32 1.32 59 1013.4
20260507001542 8 0 0.0 0.0 0.00 1.32 1.32 61 1013.3
20260507000053 8 0 0.0 1.6 0.00 1.32 1.32 60 1013.2
20260506234541 8 0 0.0 4.8 0.00 1.32 1.32 59 1013.0
20260506233046 9 0 0.0 1.6 0.00 1.32 1.32 59 1012.7
20260506231545 9 0 0.0 0.0 0.00 1.32 1.32 61 1012.2
20260506230043 10 0 0.0 0.0 0.00 1.32 1.32 61 1012.0
20260506224601 10 0 0.0 1.6 0.00 1.32 1.32 61 1011.7
20260506223049 10 0 0.0 0.0 0.00 1.32 1.32 61 1011.7
20260506221547 10 0 0.0 3.2 0.00 1.32 1.32 62 1011.6
20260506220046 10 0 0.0 6.4 0.00 1.32 1.32 61 1011.4
20260506214604 10 0 0.0 8.0 0.00 1.32 1.32 59 1011.1
20260506213044 10 0 0.0 0.0 0.00 1.32 1.32 56 1011.2